{"data":{"norad_id":54142,"epoch":"2026-09-19T22:37:09.503040Z","epoch_age_seconds":70098,"freshness":"FRESH","line1":"1 54142U 22138AF  26262.94247110  .00000116  00000+0  25354-3 0  9997","line2":"2 54142  87.9143 255.5345 0001148  98.3498 261.7765 13.20773168191816","mean_motion":13.20773168,"eccentricity":0.0001148,"inclination_deg":87.9143,"raan_deg":255.5345,"arg_perigee_deg":98.3498,"mean_anomaly_deg":261.7765,"bstar":0.00025354,"rev_number":19181,"period_min":109.02704831448,"perigee_km":1180.9003248136,"apogee_km":1182.636079048,"semimajor_km":7559.9052019308,"source":"CELESTRAK","updated_at":"2026-09-20T09:00:44.721251Z"}}